| time (UTC) | temp C | wind direction | speed KPH | gust KPH | rain 1hr cm | rain 24hr cm | rain mn cm | humidity % | barometer mb |
| 20260503051805 | 10 | 84 | 0.0 | 1.6 | 0.00 | 0.00 | 0.00 | 44 | 1015.0 |
| 20260503050804 | 10 | 36 | 0.0 | 1.6 | 0.00 | 0.00 | 0.00 | 42 | 1014.9 |
| 20260503050304 | 10 | 9 | 0.0 | 1.6 | 0.00 | 0.00 | 0.00 | 45 | 1014.9 |
| 20260503045804 | 10 | 11 | 0.0 | 1.6 | 0.00 | 0.00 | 0.00 | 43 | 1015.1 |
| 20260503045305 | 11 | 335 | 0.0 | 1.6 | 0.00 | 0.00 | 0.00 | 44 | 1014.9 |
| 20260503044804 | 11 | 32 | 0.0 | 0.0 | 0.00 | 0.00 | 0.00 | 43 | 1014.9 |
| 20260503044303 | 11 | 12 | 0.0 | 1.6 | 0.00 | 0.00 | 0.00 | 44 | 1014.9 |
| 20260503043803 | 11 | 67 | 0.0 | 3.2 | 0.00 | 0.00 | 0.00 | 44 | 1014.8 |
| 20260503043304 | 11 | 45 | 0.0 | 3.2 | 0.00 | 0.00 | 0.00 | 46 | 1014.9 |
| 20260503042804 | 12 | 102 | 0.0 | 3.2 | 0.00 | 0.00 | 0.00 | 48 | 1015.0 |
| 20260503042305 | 12 | 105 | 0.0 | 3.2 | 0.00 | 0.00 | 0.00 | 48 | 1014.9 |
| 20260503041804 | 12 | 61 | 0.0 | 1.6 | 0.00 | 0.00 | 0.00 | 50 | 1014.8 |
| 20260503041304 | 12 | 19 | 1.6 | 3.2 | 0.00 | 0.00 | 0.00 | 50 | 1014.7 |
| 20260503040804 | 12 | 322 | 1.6 | 4.8 | 0.00 | 0.00 | 0.00 | 50 | 1014.7 |
| 20260503035804 | 12 | 348 | 1.6 | 9.7 | 0.00 | 0.00 | 0.00 | 49 | 1014.8 |
| 20260503035305 | 13 | 339 | 3.2 | 9.7 | 0.00 | 0.00 | 0.00 | 48 | 1014.5 |
| 20260503034804 | 13 | 28 | 3.2 | 8.0 | 0.00 | 0.00 | 0.00 | 48 | 1014.6 |
| 20260503034304 | 13 | 304 | 3.2 | 11.3 | 0.00 | 0.00 | 0.00 | 46 | 1014.5 |
| 20260503032304 | 14 | 296 | 4.8 | 11.3 | 0.00 | 0.00 | 0.00 | 46 | 1014.4 |
| 20260503031804 | 14 | 305 | 6.4 | 11.3 | 0.00 | 0.00 | 0.00 | 46 | 1014.4 |
| 20260503031304 | 14 | 300 | 6.4 | 14.5 | 0.00 | 0.00 | 0.00 | 47 | 1014.3 |
| 20260503030803 | 14 | 293 | 6.4 | 14.5 | 0.00 | 0.00 | 0.00 | 46 | 1014.2 |
| 20260503030303 | 14 | 299 | 1.6 | 8.0 | 0.00 | 0.00 | 0.00 | 46 | 1014.2 |
| 20260503025804 | 14 | 303 | 3.2 | 12.9 | 0.00 | 0.00 | 0.00 | 46 | 1014.2 |
| 20260503025305 | 15 | 293 | 1.6 | 8.0 | 0.00 | 0.00 | 0.00 | 45 | 1014.3 |
| 20260503024305 | 15 | 321 | 4.8 | 16.1 | 0.00 | 0.00 | 0.00 | 43 | 1014.2 |
| 20260503023804 | 15 | 290 | 11.3 | 14.5 | 0.00 | 0.00 | 0.00 | 43 | 1014.3 |
| 20260503023304 | 15 | 293 | 8.0 | 14.5 | 0.00 | 0.00 | 0.00 | 42 | 1014.1 |
| 20260503022805 | 16 | 294 | 4.8 | 12.9 | 0.00 | 0.00 | 0.00 | 42 | 1014.3 |
| 20260503022305 | 16 | 272 | 4.8 | 14.5 | 0.00 | 0.00 | 0.00 | 41 | 1014.2 |
| 20260503021804 | 16 | 285 | 6.4 | 22.5 | 0.00 | 0.00 | 0.00 | 40 | 1013.9 |
| 20260503021304 | 16 | 296 | 8.0 | 16.1 | 0.00 | 0.00 | 0.00 | 40 | 1014.3 |
| 20260503020804 | 16 | 302 | 6.4 | 11.3 | 0.00 | 0.00 | 0.00 | 38 | 1014.2 |
| 20260503020305 | 16 | 280 | 3.2 | 14.5 | 0.00 | 0.00 | 0.00 | 36 | 1014.3 |
| 20260503015804 | 16 | 280 | 4.8 | 11.3 | 0.00 | 0.00 | 0.00 | 35 | 1014.2 |
| 20260503014804 | 16 | 314 | 3.2 | 11.3 | 0.00 | 0.00 | 0.00 | 35 | 1014.3 |
| 20260503014304 | 16 | 323 | 4.8 | 9.7 | 0.00 | 0.00 | 0.00 | 36 | 1014.2 |
| 20260503013804 | 17 | 317 | 4.8 | 12.9 | 0.00 | 0.00 | 0.00 | 37 | 1014.3 |
| 20260503012804 | 17 | 322 | 4.8 | 9.7 | 0.00 | 0.00 | 0.00 | 37 | 1014.6 |
| 20260503012305 | 17 | 308 | 4.8 | 12.9 | 0.00 | 0.00 | 0.00 | 36 | 1014.5 |
| 20260503011305 | 17 | 320 | 1.6 | 11.3 | 0.00 | 0.00 | 0.00 | 37 | 1014.6 |
| 20260503010804 | 17 | 291 | 6.4 | 12.9 | 0.00 | 0.00 | 0.00 | 37 | 1014.6 |
| 20260503005305 | 17 | 286 | 8.0 | 16.1 | 0.00 | 0.00 | 0.00 | 35 | 1014.5 |
| 20260503004803 | 17 | 287 | 8.0 | 12.9 | 0.00 | 0.00 | 0.00 | 36 | 1014.6 |
| 20260503003803 | 17 | 288 | 8.0 | 14.5 | 0.00 | 0.00 | 0.00 | 35 | 1014.9 |
| 20260503003304 | 17 | 283 | 6.4 | 16.1 | 0.00 | 0.00 | 0.00 | 35 | 1014.9 |
| 20260503002804 | 17 | 277 | 4.8 | 11.3 | 0.00 | 0.00 | 0.00 | 36 | 1014.7 |
| 20260503002305 | 17 | 291 | 4.8 | 12.9 | 0.00 | 0.00 | 0.00 | 35 | 1015.1 |
| 20260503001804 | 18 | 314 | 4.8 | 14.5 | 0.00 | 0.00 | 0.00 | 37 | 1015.1 |
| 20260503001304 | 17 | 282 | 8.0 | 19.3 | 0.00 | 0.00 | 0.00 | 35 | 1015.0 |
| 20260503000804 | 17 | 291 | 8.0 | 14.5 | 0.00 | 0.00 | 0.00 | 35 | 1014.9 |
| 20260503000304 | 18 | 322 | 4.8 | 11.3 | 0.00 | 0.00 | 0.00 | 36 | 1014.9 |
| 20260502235804 | 18 | 271 | 4.8 | 14.5 | 0.00 | 0.00 | 0.00 | 36 | 1015.2 |
| 20260502235305 | 18 | 305 | 4.8 | 14.5 | 0.00 | 0.00 | 0.00 | 36 | 1015.1 |
| 20260502234804 | 18 | 257 | 8.0 | 16.1 | 0.00 | 0.00 | 0.00 | 36 | 1015.2 |
| 20260502233804 | 18 | 273 | 8.0 | 16.1 | 0.00 | 0.00 | 0.00 | 35 | 1015.6 |
| 20260502233304 | 18 | 290 | 4.8 | 12.9 | 0.00 | 0.00 | 0.00 | 36 | 1015.4 |
| 20260502232804 | 18 | 324 | 4.8 | 14.5 | 0.00 | 0.00 | 0.00 | 36 | 1015.5 |
| 20260502232305 | 18 | 288 | 4.8 | 12.9 | 0.00 | 0.00 | 0.00 | 36 | 1015.7 |
| 20260502231803 | 18 | 347 | 3.2 | 8.0 | 0.00 | 0.00 | 0.00 | 36 | 1015.8 |
| 20260502231305 | 18 | 278 | 3.2 | 11.3 | 0.00 | 0.00 | 0.00 | 36 | 1015.6 |
| 20260502230804 | 18 | 304 | 9.7 | 24.1 | 0.00 | 0.00 | 0.00 | 36 | 1015.8 |
| 20260502230304 | 18 | 279 | 8.0 | 16.1 | 0.00 | 0.00 | 0.00 | 36 | 1015.9 |
| 20260502225804 | 17 | 305 | 3.2 | 12.9 | 0.00 | 0.00 | 0.00 | 38 | 1015.8 |
| 20260502225304 | 17 | 301 | 4.8 | 11.3 | 0.00 | 0.00 | 0.00 | 38 | 1015.9 |
| 20260502224804 | 17 | 97 | 1.6 | 9.7 | 0.00 | 0.00 | 0.00 | 36 | 1016.0 |
| 20260502224304 | 17 | 311 | 6.4 | 19.3 | 0.00 | 0.00 | 0.00 | 37 | 1016.0 |
| 20260502223804 | 17 | 321 | 3.2 | 9.7 | 0.00 | 0.00 | 0.00 | 38 | 1016.3 |
| 20260502223304 | 17 | 288 | 3.2 | 8.0 | 0.00 | 0.00 | 0.00 | 37 | 1016.4 |
| 20260502222804 | 17 | 15 | 3.2 | 11.3 | 0.00 | 0.00 | 0.00 | 37 | 1016.4 |
| 20260502221304 | 18 | 309 | 6.4 | 14.5 | 0.00 | 0.00 | 0.00 | 37 | 1016.5 |
| 20260502220804 | 17 | 293 | 6.4 | 14.5 | 0.00 | 0.00 | 0.00 | 38 | 1016.7 |
| 20260502220304 | 17 | 326 | 1.6 | 8.0 | 0.00 | 0.00 | 0.00 | 38 | 1016.8 |
| 20260502215305 | 17 | 295 | 9.7 | 14.5 | 0.00 | 0.00 | 0.00 | 38 | 1016.8 |
| 20260502214804 | 17 | 311 | 4.8 | 12.9 | 0.00 | 0.00 | 0.00 | 39 | 1016.9 |
| 20260502214305 | 17 | 287 | 4.8 | 12.9 | 0.00 | 0.00 | 0.00 | 37 | 1016.9 |
| 20260502213804 | 17 | 298 | 4.8 | 20.9 | 0.00 | 0.00 | 0.00 | 39 | 1017.1 |
| 20260502213304 | 17 | 268 | 8.0 | 14.5 | 0.00 | 0.00 | 0.00 | 39 | 1017.2 |
| 20260502212804 | 17 | 289 | 6.4 | 16.1 | 0.00 | 0.00 | 0.00 | 36 | 1017.1 |
| 20260502212305 | 17 | 267 | 4.8 | 9.7 | 0.00 | 0.00 | 0.00 | 38 | 1017.1 |
| 20260502211804 | 17 | 297 | 3.2 | 9.7 | 0.00 | 0.00 | 0.00 | 37 | 1017.0 |
| 20260502210804 | 17 | 158 | 3.2 | 9.7 | 0.00 | 0.00 | 0.00 | 37 | 1017.3 |
| 20260502210304 | 17 | 296 | 6.4 | 12.9 | 0.00 | 0.00 | 0.00 | 38 | 1017.5 |
| 20260502205804 | 17 | 332 | 3.2 | 11.3 | 0.00 | 0.00 | 0.00 | 39 | 1017.3 |
| 20260502205305 | 17 | 268 | 6.4 | 16.1 | 0.00 | 0.00 | 0.00 | 38 | 1017.6 |
| 20260502204804 | 17 | 282 | 4.8 | 14.5 | 0.00 | 0.00 | 0.00 | 38 | 1017.9 |
| 20260502204304 | 17 | 270 | 4.8 | 14.5 | 0.00 | 0.00 | 0.00 | 38 | 1017.7 |
| 20260502203804 | 17 | 289 | 4.8 | 12.9 | 0.00 | 0.00 | 0.00 | 41 | 1018.1 |
| 20260502202803 | 17 | 248 | 4.8 | 16.1 | 0.00 | 0.00 | 0.00 | 40 | 1018.0 |
| 20260502202305 | 16 | 275 | 8.0 | 16.1 | 0.00 | 0.00 | 0.00 | 39 | 1018.3 |
| 20260502201804 | 16 | 137 | 1.6 | 11.3 | 0.00 | 0.00 | 0.00 | 38 | 1018.2 |
| 20260502201304 | 16 | 261 | 3.2 | 12.9 | 0.00 | 0.00 | 0.00 | 38 | 1018.3 |
| 20260502200804 | 16 | 279 | 6.4 | 12.9 | 0.00 | 0.00 | 0.00 | 38 | 1018.3 |
| 20260502200303 | 16 | 217 | 6.4 | 20.9 | 0.00 | 0.00 | 0.00 | 38 | 1018.4 |
| 20260502195804 | 16 | 293 | 4.8 | 11.3 | 0.00 | 0.00 | 0.00 | 40 | 1018.6 |
| 20260502195305 | 17 | 326 | 1.6 | 11.3 | 0.00 | 0.00 | 0.00 | 37 | 1018.7 |
| 20260502194804 | 17 | 279 | 4.8 | 12.9 | 0.00 | 0.00 | 0.00 | 38 | 1018.7 |
| 20260502194304 | 17 | 279 | 3.2 | 20.9 | 0.00 | 0.00 | 0.00 | 38 | 1018.7 |
| 20260502193804 | 17 | 279 | 6.4 | 20.9 | 0.00 | 0.00 | 0.00 | 38 | 1019.0 |
| 20260502193304 | 17 | 284 | 3.2 | 12.9 | 0.00 | 0.00 | 0.00 | 40 | 1018.8 |
| 20260502192804 | 16 | 266 | 6.4 | 12.9 | 0.00 | 0.00 | 0.00 | 40 | 1019.0 |
| 20260502192305 | 17 | 203 | 3.2 | 11.3 | 0.00 | 0.00 | 0.00 | 37 | 1019.0 |
| 20260502191804 | 17 | 294 | 4.8 | 11.3 | 0.00 | 0.00 | 0.00 | 43 | 1019.2 |
| 20260502191304 | 17 | 271 | 6.4 | 14.5 | 0.00 | 0.00 | 0.00 | 39 | 1019.2 |
| 20260502190804 | 17 | 283 | 9.7 | 19.3 | 0.00 | 0.00 | 0.00 | 40 | 1019.2 |
| 20260502190304 | 17 | 292 | 3.2 | 8.0 | 0.00 | 0.00 | 0.00 | 39 | 1019.3 |
| 20260502185804 | 17 | 275 | 4.8 | 12.9 | 0.00 | 0.00 | 0.00 | 38 | 1019.4 |
| 20260502184804 | 17 | 269 | 8.0 | 14.5 | 0.00 | 0.00 | 0.00 | 39 | 1019.4 |
| 20260502184304 | 17 | 303 | 3.2 | 14.5 | 0.00 | 0.00 | 0.00 | 46 | 1019.5 |
| 20260502183304 | 17 | 287 | 3.2 | 19.3 | 0.00 | 0.00 | 0.00 | 38 | 1019.6 |
| 20260502182804 | 17 | 294 | 8.0 | 19.3 | 0.00 | 0.00 | 0.00 | 43 | 1019.7 |
| 20260502182305 | 17 | 258 | 3.2 | 12.9 | 0.00 | 0.00 | 0.00 | 38 | 1020.0 |
| 20260502181804 | 17 | 276 | 8.0 | 19.3 | 0.00 | 0.00 | 0.00 | 41 | 1020.0 |
| 20260502181304 | 17 | 271 | 4.8 | 12.9 | 0.00 | 0.00 | 0.00 | 39 | 1020.0 |
| 20260502180804 | 17 | 289 | 6.4 | 12.9 | 0.00 | 0.00 | 0.00 | 40 | 1020.2 |
| 20260502180305 | 17 | 273 | 4.8 | 12.9 | 0.00 | 0.00 | 0.00 | 38 | 1020.2 |
| 20260502170304 | 16 | 303 | 3.2 | 4.8 | 0.00 | 0.00 | 0.00 | 44 | 1020.6 |
| 20260502164304 | 16 | 15 | 1.6 | 9.7 | 0.00 | 0.00 | 0.00 | 40 | 1020.6 |
| 20260502163804 | 16 | 276 | 3.2 | 9.7 | 0.00 | 0.00 | 0.00 | 42 | 1020.8 |
| 20260502163304 | 16 | 153 | 0.0 | 3.2 | 0.00 | 0.00 | 0.00 | 42 | 1020.9 |
| 20260502162804 | 16 | 273 | 3.2 | 4.8 | 0.00 | 0.00 | 0.00 | 42 | 1020.9 |
| 20260502162305 | 16 | 267 | 1.6 | 4.8 | 0.00 | 0.00 | 0.00 | 42 | 1020.7 |
| 20260502160804 | 14 | 265 | 3.2 | 8.0 | 0.00 | 0.00 | 0.00 | 47 | 1020.9 |
| 20260502160304 | 13 | 282 | 1.6 | 3.2 | 0.00 | 0.00 | 0.00 | 49 | 1021.1 |
| 20260502152305 | 12 | 186 | 1.6 | 3.2 | 0.00 | 0.00 | 0.00 | 52 | 1021.3 |
| 20260502151304 | 11 | 200 | 1.6 | 3.2 | 0.00 | 0.00 | 0.00 | 53 | 1021.1 |
| 20260502150804 | 11 | 139 | 1.6 | 1.6 | 0.00 | 0.00 | 0.00 | 54 | 1021.1 |
| 20260502150304 | 11 | 150 | 1.6 | 3.2 | 0.00 | 0.00 | 0.00 | 54 | 1021.2 |
| 20260502130304 | 8 | 29 | 0.0 | 0.0 | 0.00 | 0.00 | 0.00 | 65 | 1020.7 |
| 20260502123804 | 8 | 41 | 0.0 | 1.6 | 0.00 | 0.00 | 0.00 | 66 | 1020.8 |
| 20260502123304 | 8 | 41 | 0.0 | 1.6 | 0.00 | 0.00 | 0.00 | 65 | 1020.7 |
| 20260502122804 | 8 | 76 | 0.0 | 1.6 | 0.00 | 0.00 | 0.00 | 65 | 1020.7 |
| 20260502122306 | 8 | 96 | 0.0 | 3.2 | 0.00 | 0.00 | 0.00 | 65 | 1020.8 |
| 20260502121305 | 8 | 100 | 1.6 | 4.8 | 0.00 | 0.00 | 0.00 | 65 | 1020.7 |
| 20260502120803 | 8 | 100 | 1.6 | 4.8 | 0.00 | 0.00 | 0.00 | 65 | 1020.7 |
| 20260502120304 | 8 | 97 | 1.6 | 4.8 | 0.00 | 0.00 | 0.00 | 65 | 1020.8 |
| 20260502115803 | 8 | 94 | 3.2 | 4.8 | 0.00 | 0.00 | 0.00 | 65 | 1020.8 |
| 20260502115306 | 8 | 104 | 1.6 | 4.8 | 0.00 | 0.00 | 0.00 | 65 | 1020.7 |
| 20260502114804 | 8 | 100 | 3.2 | 4.8 | 0.00 | 0.00 | 0.00 | 65 | 1020.8 |
| 20260502114304 | 8 | 99 | 1.6 | 4.8 | 0.00 | 0.00 | 0.00 | 65 | 1020.8 |
| 20260502113304 | 8 | 100 | 1.6 | 3.2 | 0.00 | 0.00 | 0.00 | 65 | 1020.7 |
| 20260502112804 | 8 | 86 | 1.6 | 3.2 | 0.00 | 0.00 | 0.00 | 65 | 1020.8 |
| 20260502112306 | 8 | 103 | 3.2 | 8.0 | 0.00 | 0.00 | 0.00 | 65 | 1020.8 |
| 20260502111804 | 8 | 97 | 3.2 | 4.8 | 0.00 | 0.00 | 0.00 | 66 | 1020.7 |
| 20260502110804 | 8 | 94 | 1.6 | 8.0 | 0.00 | 0.00 | 0.00 | 66 | 1020.9 |
| 20260502105803 | 8 | 31 | 1.6 | 8.0 | 0.00 | 0.00 | 0.00 | 65 | 1020.7 |
| 20260502105306 | 8 | 96 | 1.6 | 4.8 | 0.00 | 0.00 | 0.00 | 65 | 1020.7 |
| 20260502104804 | 8 | 50 | 0.0 | 4.8 | 0.00 | 0.00 | 0.00 | 65 | 1020.8 |
| 20260502104304 | 8 | 23 | 1.6 | 3.2 | 0.00 | 0.00 | 0.00 | 65 | 1020.7 |
| 20260502103304 | 8 | 44 | 1.6 | 3.2 | 0.00 | 0.00 | 0.00 | 65 | 1020.7 |
| 20260502102803 | 8 | 22 | 1.6 | 3.2 | 0.00 | 0.00 | 0.00 | 65 | 1020.7 |
| 20260502101804 | 9 | 61 | 1.6 | 4.8 | 0.00 | 0.00 | 0.00 | 66 | 1020.5 |
| 20260502101304 | 9 | 104 | 1.6 | 4.8 | 0.00 | 0.00 | 0.00 | 66 | 1020.7 |
| 20260502100804 | 9 | 39 | 1.6 | 3.2 | 0.00 | 0.00 | 0.00 | 66 | 1020.8 |
| 20260502100304 | 9 | 113 | 1.6 | 4.8 | 0.00 | 0.00 | 0.00 | 66 | 1020.8 |
| 20260502091304 | 10 | 74 | 1.6 | 4.8 | 0.00 | 0.00 | 0.00 | 60 | 1020.6 |
| 20260502090304 | 10 | 9 | 3.2 | 8.0 | 0.00 | 0.00 | 0.00 | 61 | 1020.4 |
| 20260502071304 | 10 | 49 | 1.6 | 3.2 | 0.00 | 0.00 | 0.00 | 59 | 1020.3 |
| 20260502070804 | 10 | 51 | 0.0 | 1.6 | 0.00 | 0.00 | 0.00 | 59 | 1020.1 |
| 20260502065804 | 10 | 30 | 1.6 | 3.2 | 0.00 | 0.00 | 0.00 | 58 | 1020.1 |
| 20260502065306 | 10 | 41 | 0.0 | 3.2 | 0.00 | 0.00 | 0.00 | 58 | 1020.0 |
| 20260502064803 | 10 | 47 | 1.6 | 3.2 | 0.00 | 0.00 | 0.00 | 58 | 1020.3 |
| 20260502064305 | 10 | 48 | 1.6 | 1.6 | 0.00 | 0.00 | 0.00 | 58 | 1020.1 |
| 20260502063804 | 10 | 56 | 1.6 | 3.2 | 0.00 | 0.00 | 0.00 | 58 | 1020.0 |
| 20260502063304 | 10 | 52 | 1.6 | 3.2 | 0.00 | 0.00 | 0.00 | 58 | 1020.2 |
| 20260502062804 | 10 | 10 | 1.6 | 3.2 | 0.00 | 0.00 | 0.00 | 58 | 1020.0 |
| 20260502062306 | 10 | 57 | 1.6 | 4.8 | 0.00 | 0.00 | 0.00 | 58 | 1020.2 |
| 20260502061304 | 10 | 65 | 0.0 | 4.8 | 0.00 | 0.00 | 0.00 | 59 | 1020.2 |
| 20260502060804 | 10 | 50 | 1.6 | 3.2 | 0.00 | 0.00 | 0.00 | 59 | 1020.0 |
| 20260502060305 | 10 | 103 | 1.6 | 3.2 | 0.00 | 0.00 | 0.00 | 58 | 1019.9 |
| 20260502055804 | 10 | 55 | 1.6 | 3.2 | 0.00 | 0.00 | 0.00 | 59 | 1020.0 |
| 20260502054803 | 10 | 27 | 1.6 | 3.2 | 0.00 | 0.00 | 0.00 | 59 | 1020.2 |
| 20260502054305 | 10 | 42 | 1.6 | 4.8 | 0.00 | 0.00 | 0.00 | 60 | 1019.9 |
| 20260502053804 | 10 | 44 | 1.6 | 3.2 | 0.00 | 0.00 | 0.00 | 59 | 1019.7 |
| 20260502052804 | 10 | 102 | 1.6 | 8.0 | 0.00 | 0.00 | 0.00 | 60 | 1019.6 |